Elefsis, Greece

5:41 PM EEST on August 25, 2016 (GMT +0300)
Elefsis Air Base

Weather History for LGEL - August, 2012

Change the Weather History Date:

Wednesday, August 1, 2012

  Actual Average Record
Temperature  
Mean Temperature 86 °F -  
Max Temperature 93 °F 90 °F 100 °F (2005)
Min Temperature 78 °F 72 °F 69 °F (1999)
Cooling Degree Days 20    
Growing Degree Days 36 (Base 50)    
Moisture  
Dew Point 54 °F    
Average Humidity 34    
Maximum Humidity 51    
Minimum Humidity 21    
Precipitation  
Precipitation 0.00 in - - ()
Sea Level Pressure  
Sea Level Pressure 29.80 in    
Wind  
Wind Speed 8 mph ()    
Max Wind Speed 17 mph    
Max Gust Speed 26 mph    
Visibility 6.2 miles    
Events      
Averages and records for this station are not official NWS values.
T = Trace of Precipitation, MM = Missing Value Source: Averaged Metar Reports

Daily Weather History Graph

Daily Weather History Graph

Search for Another Location

Airport or City:

Trip Planner

Search our weather history database for the weather conditions in past years. The results will help you decide how hot, cold, wet, or windy it might be!

Date:

Astronomy

Aug. 01, 2012 Rise Set
Actual Time 6:28 AM EEST 8:34 PM EEST
Civil Twilight 5:59 AM EEST 9:03 PM EEST
Nautical Twilight 5:23 AM EEST 9:39 PM EEST
Astronomical Twilight 4:45 AM EEST 10:18 PM EEST
Moon 7:53 PM EEST (8/1) 5:36 AM EEST (8/1)
Length of Visible Light 15h 04m
Length of Day
14h 06m
Waxing Gibbous, 99% of the Moon is Illuminated
Aug 1
Waxing Gibbous
Aug 2
Full
Aug 9
Last Quarter
Aug 17
New
Aug 24
First Quarter

Hourly Weather History & Observations

Time (EEST) Temp. Heat Index Dew Point Humidity Pressure Visibility Wind Dir Wind Speed Gust Speed Precip Events Conditions
12:50 AM 84.2 °F 83.0 °F 55.4 °F 37% 29.77 in - NNW 8.1 mph - N/A   Clear
1:50 AM 82.4 °F 81.7 °F 55.4 °F 39% 29.77 in - NW 3.5 mph - N/A   Clear
2:50 AM 82.4 °F 81.7 °F 55.4 °F 39% 29.77 in - NW 6.9 mph - N/A   Clear
3:50 AM 82.4 °F 82.5 °F 59.0 °F 45% 29.77 in - NW 9.2 mph - N/A   Clear
4:50 AM 80.6 °F 81.1 °F 59.0 °F 48% 29.77 in - NNW 9.2 mph - N/A   Clear
5:50 AM 80.6 °F 81.1 °F 59.0 °F 48% 29.80 in 6.2 mi North 5.8 mph - N/A   Scattered Clouds
6:20 AM 80.6 °F 81.1 °F 59.0 °F 48% 29.80 in 6.2 mi NNW 8.1 mph - N/A   Scattered Clouds
7:20 AM 82.4 °F 82.5 °F 59.0 °F 45% 29.80 in 6.2 mi NNW 5.8 mph - N/A   Partly Cloudy
7:50 AM 84.2 °F 83.5 °F 57.2 °F 40% 29.80 in 6.2 mi North 8.1 mph - N/A   Partly Cloudy
8:20 AM 84.2 °F 83.5 °F 57.2 °F 40% 29.80 in 6.2 mi North 9.2 mph - N/A   Partly Cloudy
8:50 AM 84.2 °F 83.5 °F 57.2 °F 40% 29.80 in 6.2 mi North 8.1 mph - N/A   Partly Cloudy
9:20 AM 86.0 °F 84.5 °F 55.4 °F 35% 29.80 in 6.2 mi North 6.9 mph - N/A   Partly Cloudy
9:50 AM 86.0 °F - 51.8 °F 31% 29.80 in 6.2 mi North 6.9 mph - N/A   Scattered Clouds
10:20 AM 86.0 °F - 51.8 °F 31% 29.80 in 6.2 mi North 12.7 mph - N/A   Scattered Clouds
10:50 AM 87.8 °F 85.7 °F 53.6 °F 31% 29.80 in 6.2 mi NNE 8.1 mph - N/A   Scattered Clouds
11:20 AM 87.8 °F 85.7 °F 53.6 °F 31% 29.80 in 6.2 mi North 9.2 mph - N/A   Scattered Clouds
11:50 AM 87.8 °F 85.7 °F 53.6 °F 31% 29.80 in 6.2 mi NNE 11.5 mph - N/A   Scattered Clouds
12:20 PM 89.6 °F 87.3 °F 53.6 °F 29% 29.80 in 6.2 mi NE 10.4 mph - N/A   Scattered Clouds
12:50 PM 91.4 °F 89.1 °F 53.6 °F 28% 29.80 in 6.2 mi North 11.5 mph - N/A   Scattered Clouds
1:20 PM 91.4 °F 89.1 °F 53.6 °F 28% 29.80 in 6.2 mi NNE 11.5 mph 23.0 mph N/A   Scattered Clouds
1:50 PM 93.2 °F - 50.0 °F 23% 29.80 in 6.2 mi North 11.5 mph 23.0 mph N/A   Scattered Clouds
2:20 PM 93.2 °F - 50.0 °F 23% 29.80 in 6.2 mi North 15.0 mph 26.5 mph N/A   Scattered Clouds
2:50 PM 93.2 °F - 50.0 °F 23% 29.80 in 6.2 mi North 11.5 mph 23.0 mph N/A   Partly Cloudy
3:20 PM 93.2 °F - 50.0 °F 23% 29.80 in 6.2 mi North 11.5 mph 24.2 mph N/A   Partly Cloudy
3:50 PM 93.2 °F - 48.2 °F 21% 29.77 in 6.2 mi North 12.7 mph 24.2 mph N/A   Partly Cloudy
4:50 PM 93.2 °F - 48.2 °F 21% 29.77 in 6.2 mi North 13.8 mph - N/A   Partly Cloudy
5:20 PM 93.2 °F - 48.2 °F 21% 29.77 in 6.2 mi NNE 10.4 mph - N/A   Partly Cloudy
5:50 PM 91.4 °F - 50.0 °F 24% 29.80 in 6.2 mi North 10.4 mph - N/A   Partly Cloudy
6:20 PM 91.4 °F - 50.0 °F 24% 29.80 in 6.2 mi North 10.4 mph - N/A   Partly Cloudy
6:50 PM 91.4 °F - 50.0 °F 24% 29.80 in 6.2 mi NNW 9.2 mph - N/A   Partly Cloudy
7:20 PM 89.6 °F - 48.2 °F 24% 29.80 in 6.2 mi North 8.1 mph - N/A   Partly Cloudy
7:50 PM 87.8 °F - 50.0 °F 27% 29.80 in 6.2 mi North 9.2 mph - N/A   Mostly Cloudy
8:20 PM 86.0 °F - 51.8 °F 31% 29.80 in 6.2 mi NNW 9.2 mph - N/A   Scattered Clouds
8:50 PM 80.6 °F 80.5 °F 55.4 °F 42% 29.83 in 6.2 mi NW 17.3 mph - N/A   Scattered Clouds
9:20 PM 80.6 °F 80.5 °F 55.4 °F 42% 29.83 in 6.2 mi NW 9.2 mph - N/A   Scattered Clouds
9:50 PM 78.8 °F - 59.0 °F 51% 29.86 in 6.2 mi NW 6.9 mph - N/A   Scattered Clouds
10:20 PM 78.8 °F - 57.2 °F 47% 29.86 in 6.2 mi NNW 6.9 mph - N/A   Scattered Clouds
10:50 PM 78.8 °F - 55.4 °F 44% 29.83 in 6.2 mi NNW 9.2 mph - N/A   Partly Cloudy
11:20 PM 80.6 °F 80.5 °F 55.4 °F 42% 29.83 in 6.2 mi NNW 11.5 mph - N/A   Partly Cloudy
11:50 PM 78.8 °F - 55.4 °F 44% 29.83 in - North 11.5 mph - N/A   Clear